Weather History for Tallahassee, FL

Change the Weather History Date:

Monday, May 27, 2013

  Actual Average Record
Temperature  
Mean Temperature 77 °F 77 °F  
Max Temperature 93 °F 89 °F 102 °F (1953)
Min Temperature 61 °F 65 °F 44 °F (1979)
Degree Days  
Heating Degree Days 0    
Month to date heating degree days 14  
Since 1 July heating degree days 1332  
Cooling Degree Days 12    
Month to date cooling degree days 202  
Year to date cooling degree days 399  
Growing Degree Days 27 (Base 50)    
Moisture  
Dew Point 56 °F    
Average Humidity 52    
Maximum Humidity 84    
Minimum Humidity 20    
Precipitation  
Precipitation 0.00 in 0.14 in 5.09 in (1991)
Month to date precipitation 0.36 2.82  
Year to date precipitation 22.32 21.01  
Sea Level Pressure  
Sea Level Pressure 30.15 in    
Wind  
Wind Speed 5 mph (ESE)    
Max Wind Speed 16 mph    
Max Gust Speed 23 mph    
Visibility 10 miles    
Events      
T = Trace of Precipitation, MM = Missing Value Source: NWS Daily Summary

Daily Weather History Graph

Daily Weather History Graph

Search for Another Location

Airport:

Trip Planner

Search our weather history database for the weather conditions in past years. The results will help you decide how hot, cold, wet, or windy it might be!

Date:

Astronomy

May. 27, 2013 Rise Set
Actual Time 6:37 AM EDT 8:32 PM EDT
Civil Twilight 6:10 AM EDT 8:59 PM EDT
Nautical Twilight 5:37 AM EDT 9:31 PM EDT
Astronomical Twilight 5:03 AM EDT 10:06 PM EDT
Moon 11:15 PM EDT (5/27) 9:10 AM EDT (5/27)
Length of Visible Light 14h 48m
Length of Day
13h 54m
Waning Gibbous, 91% of the Moon is Illuminated
May 27
Waning Gibbous
May 31
Last Quarter
Jun 8
New
Jun 16
First Quarter
Jun 23
Full

Hourly Weather History & Observations

Time (EDT) Temp. Heat Index Dew Point Humidity Pressure Visibility Wind Dir Wind Speed Gust Speed Precip Events Conditions
12:53 AM 64.9 °F - 59.0 °F 81% 30.17 in 10.0 mi Calm Calm - N/A   Clear
1:53 AM 64.0 °F - 57.9 °F 80% 30.17 in 10.0 mi Calm Calm - N/A   Unknown
2:53 AM 63.0 °F - 57.9 °F 84% 30.17 in 10.0 mi East 4.6 mph - N/A   Clear
3:53 AM 63.0 °F - 57.0 °F 81% 30.16 in 10.0 mi Calm Calm - N/A   Clear
4:53 AM 62.1 °F - 57.0 °F 84% 30.16 in 10.0 mi Calm Calm - N/A   Clear
5:53 AM 61.0 °F - 55.9 °F 83% 30.17 in 10.0 mi Calm Calm - N/A   Clear
6:53 AM 61.0 °F - 55.9 °F 83% 30.19 in 10.0 mi Calm Calm - N/A   Clear
7:53 AM 69.1 °F - 59.0 °F 70% 30.20 in 10.0 mi East 5.8 mph - N/A   Clear
8:53 AM 71.1 °F - 61.0 °F 70% 30.20 in 10.0 mi SE 4.6 mph - N/A   Clear
9:53 AM 79.0 °F - 63.0 °F 58% 30.22 in 10.0 mi Calm Calm - N/A   Partly Cloudy
10:53 AM 82.0 °F 82.7 °F 61.0 °F 49% 30.21 in 10.0 mi Variable 3.5 mph - N/A   Partly Cloudy
11:53 AM 84.9 °F 83.9 °F 57.0 °F 38% 30.20 in 10.0 mi SE 5.8 mph - N/A   Partly Cloudy
12:53 PM 89.1 °F 86.9 °F 54.0 °F 30% 30.18 in 10.0 mi East 10.4 mph - N/A   Partly Cloudy
1:53 PM 88.0 °F - 52.0 °F 29% 30.16 in 10.0 mi East 9.2 mph 18.4 mph N/A   Partly Cloudy
2:53 PM 90.0 °F - 48.0 °F 24% 30.14 in 10.0 mi SE 4.6 mph - N/A   Partly Cloudy
3:53 PM 91.9 °F - 46.9 °F 21% 30.11 in 10.0 mi ESE 9.2 mph - N/A   Partly Cloudy
4:53 PM 91.0 °F - 45.0 °F 20% 30.10 in 10.0 mi Variable 3.5 mph - N/A   Partly Cloudy
5:53 PM 91.0 °F - 44.1 °F 20% 30.09 in 10.0 mi East 13.8 mph 18.4 mph N/A   Partly Cloudy
6:53 PM 87.1 °F 85.7 °F 55.9 °F 35% 30.09 in 10.0 mi South 9.2 mph - N/A   Partly Cloudy
7:53 PM 84.0 °F 83.0 °F 55.9 °F 38% 30.09 in 10.0 mi SSE 5.8 mph - N/A   Clear
8:53 PM 80.1 °F 80.4 °F 57.0 °F 45% 30.09 in 10.0 mi SE 3.5 mph - N/A   Clear
9:53 PM 73.9 °F - 57.0 °F 55% 30.11 in 10.0 mi Calm Calm - N/A   Clear
10:53 PM 71.1 °F - 57.9 °F 63% 30.12 in 10.0 mi ESE 3.5 mph - N/A   Clear
11:53 PM 72.0 °F - 60.1 °F 66% 30.14 in 10.0 mi East 5.8 mph - N/A   Clear